This is the latest recevied weather packets stored in our database for station/object EA3HRE-10. If no packets are shown the sender has not sent any weather packets the latest 10 day(s).
| Time | Temp. | Humidity | Pressure | Rain* | Wind** | Luminosity | Snow |
|---|---|---|---|---|---|---|---|
| 1777558606 | 26.11° C | 44% | 1016.4 hPa | - | - | - | - |
| 1777557706 | 26.11° C | 44% | 1016.6 hPa | - | - | - | - |
| 1777556806 | 26.11° C | 44% | 1016.7 hPa | - | - | - | - |
| 1777555906 | 25.56° C | 44% | 1016.6 hPa | - | - | - | - |
| 1777555006 | 25.56° C | 45% | 1016.7 hPa | - | - | - | - |
| 1777554105 | 26.11° C | 44% | 1016.7 hPa | - | - | - | - |
| 1777553205 | 25.56° C | 44% | 1016.6 hPa | - | - | - | - |
| 1777552305 | 25.56° C | 44% | 1016.6 hPa | - | - | - | - |
| 1777551405 | 25° C | 45% | 1016.7 hPa | - | - | - | - |
| 1777550505 | 25° C | 46% | 1016.7 hPa | - | - | - | - |
| 1777549605 | 25° C | 45% | 1016.9 hPa | - | - | - | - |
| 1777548705 | 25.56° C | 44% | 1017 hPa | - | - | - | - |
| 1777547805 | 25° C | 44% | 1017.1 hPa | - | - | - | - |
| 1777546905 | 25° C | 45% | 1017.1 hPa | - | - | - | - |
| 1777546004 | 24.44° C | 46% | 1017.2 hPa | - | - | - | - |
| 1777545104 | 24.44° C | 45% | 1017.2 hPa | - | - | - | - |
| 1777544204 | 24.44° C | 46% | 1017.3 hPa | - | - | - | - |
| 1777543304 | 23.89° C | 46% | 1017.3 hPa | - | - | - | - |
| 1777542404 | 24.44° C | 45% | 1017.2 hPa | - | - | - | - |
| 1777541504 | 23.89° C | 45% | 1017.1 hPa | - | - | - | - |
| 1777540604 | 23.89° C | 45% | 1017.1 hPa | - | - | - | - |
| 1777539704 | 23.33° C | 46% | 1016.9 hPa | - | - | - | - |
| 1777538804 | 23.33° C | 46% | 1016.8 hPa | - | - | - | - |
| 1777537903 | 22.78° C | 45% | 1016.5 hPa | - | - | - | - |
| 1777537003 | 22.78° C | 46% | 1016.4 hPa | - | - | - | - |
* Rain since midnight (hover to see other rain measurements)
** Current wind speed in m/s (hover to see current wind gust speed)